Back to catalog

COSMOS 1275 DEB

AlivePO
NORAD 13816·DEBRIS·🇷🇺 Russia

Launched Jun 4, 1981 from Plesetsk Cosmodrome

Loading…

Next Passes (next 24 hours)

TLE

FreshSource: Space-Track

Epoch: Sep 14, 2026, 07:05 UTC

1 13816U 81053HL  26257.29564144  .00002288  00000-0  17237-2 0  9995
2 13816  82.9859   4.7314 0148678 287.6276  99.6512 13.88859659172658

Track COSMOS 1275 DEB in real time with AllMySat

Download on the App Store